Flag for U.S.A. Weather past 2 weeks in Port Angeles, Washington, U.S.A.

Now
41 °F

Passing clouds.


Feels Like: 41 °F
Forecast: 44 / 49 °F
Wind: No wind

Location: William R. Fairchild International Airport

Current Time: Jan 31, 2015 at 10:43:11 PM

Latest Report: Jan 31, 2015 at 9:53 PM


Visibility: 10 mi

Pressure: 30.13 "Hg

Humidity: 89%

Dew point: 38 °F

Location of Port AngelesLocation

Historic Weather in Port Angeles — Graph

°F

Port Angeles temperature yesterday

Maximum temperature yesterday: 49 °F (at 11:53 AM)
Minimum temperature yesterday: 32 °F (at 12:53 AM)
Average temperature yesterday: 40 °F

Past Weeks' High & Low Weather Summary

 TemperatureHumidityPressure
High55 °F (Jan 24, 10:53 AM)100% (Jan 26, 8:53 AM)30.46 "Hg (Jan 26, 8:53 AM)
Low32 °F (Jan 30, 12:53 AM)66% (Jan 18, 8:53 AM)29.47 "Hg (Jan 18, 12:53 AM)
Average45 °F87%30.20 "Hg
* Reported Jan 16 9:53 PM — Jan 31 9:53 PM, Port Angeles, Weather by CustomWeather, © 2014

Note: Actual official high and low records may vary slightly from our data, if they occured in-between our weather recording intervals... More about our weather records

Advertising

Port Angeles weather history for previous 24 hours

 ConditionsComfort  
Time TempWeatherWind HumidityBarometerVisibility
9:53 PM
Jan 31
41 °FPassing clouds.No wind89%30.13 "Hg10 mi
8:53 PM42 °FPassing clouds.No wind89%30.13 "Hg10 mi
7:53 PM42 °FPassing clouds.5 mph89%30.14 "Hg10 mi
6:53 PM42 °FPassing clouds.6 mph89%30.17 "Hg10 mi
5:53 PM42 °FPassing clouds.No wind89%30.19 "Hg10 mi
4:53 PM44 °FMostly cloudy.3 mph85%30.18 "Hg10 mi
3:53 PM44 °FLow clouds.3 mph82%30.20 "Hg10 mi
2:53 PM44 °FLow clouds.5 mph85%30.18 "Hg10 mi
1:53 PM44 °FLow clouds.7 mph85%30.19 "Hg10 mi
12:53 PM44 °FLow clouds.5 mph89%30.22 "Hg10 mi
11:53 AM43 °FLow clouds.6 mph89%30.24 "Hg10 mi
10:53 AM43 °FLow clouds.7 mph89%30.25 "Hg9 mi
9:53 AM43 °FFog.5 mph93%30.26 "Hg6 mi
8:53 AM43 °FLow clouds.5 mph93%30.25 "Hg8 mi
7:53 AM42 °FFog.N/A92%30.26 "Hg6 mi
6:53 AM42 °FFog.N/A92%30.26 "Hg6 mi
5:53 AM43 °FLow clouds.N/A93%30.25 "Hg9 mi
4:53 AM43 °FLow clouds.N/A93%30.26 "Hg10 mi
3:53 AM37 °FLow clouds.N/A93%30.25 "Hg8 mi
2:53 AM37 °FClear.N/A93%30.26 "Hg10 mi
1:53 AM35 °FPassing clouds.N/A96%30.26 "Hg10 mi
12:53 AM35 °FPassing clouds.No wind92%30.27 "Hg10 mi
11:53 PM
Jan 30
37 °FClear.5 mph93%30.27 "Hg10 mi
10:53 PM36 °FClear.No wind97%30.26 "Hg10 mi
Weather by CustomWeather, © 2014

See weather overviewHow to use our weather pages